When you browse on this site, cookies collect data to enhance your experience and personalize the content and advertising you see.
Visit our Privacy Policy to learn more. By continuing to use the site, you agree to this use of cookies and data.
  • Em Portugal
  • Lista de países
  • Para 7 dias
  • Temperatura da água
  • Mapas de satélite
  • Mapa do tempo
  • Widgets de tempo
  • user-avatar
    Iniciar Sessão

    Previsão horária em Neuquén

    Hoje, 16 Dezembro, Domingo

    Tempo Temperatura Precipitação Vento Pressão Humidade
    00:00 +22°C° 0 mm 9 m/s 731 mmHg 35%
    01:00 +22°C° 0 mm 8 m/s 730 mmHg 38%
    02:00 +21°C° 0 mm 8 m/s 731 mmHg 39%
    03:00 +21°C° 0 mm 7 m/s 731 mmHg 40%
    04:00 +21°C° 0 mm 7 m/s 731 mmHg 42%
    05:00 +22°C° 0 mm 7 m/s 731 mmHg 39%
    06:00 +23°C° 0 mm 8 m/s 731 mmHg 37%
    07:00 +26°C° 0 mm 8 m/s 731 mmHg 31%
    08:00 +27°C° 0 mm 9 m/s 730 mmHg 28%
    09:00 +29°C° 0 mm 9 m/s 730 mmHg 25%
    10:00 +31°C° 0 mm 9 m/s 730 mmHg 23%
    11:00 +32°C° 0 mm 9 m/s 730 mmHg 22%
    12:00 +33°C° 0 mm 9 m/s 730 mmHg 21%
    13:00 +33°C° 0 mm 10 m/s 730 mmHg 20%
    14:00 +33°C° 0 mm 10 m/s 729 mmHg 21%
    15:00 +32°C° 0 mm 11 m/s 729 mmHg 21%
    16:00 +32°C° 0 mm 12 m/s 729 mmHg 22%
    17:00 +29°C° 0 mm 12 m/s 730 mmHg 23%
    18:00 +28°C° 0 mm 12 m/s 730 mmHg 25%
    19:00 +26°C° 0 mm 12 m/s 731 mmHg 26%
    20:00 +24°C° 0 mm 12 m/s 732 mmHg 28%
    21:00 +23°C° 0 mm 11 m/s 733 mmHg 30%
    22:00 +22°C° 0 mm 11 m/s 734 mmHg 32%
    23:00 +21°C° 0 mm 10 m/s 734 mmHg 35%

    Amanhã, 17 Dezembro, Segunda-feira

    Tempo Temperatura Precipitação Vento Pressão Humidade
    00:00 +21°C° 0 mm 9 m/s 735 mmHg 38%
    01:00 +20°C° 0 mm 8 m/s 735 mmHg 41%
    02:00 +18°C° 0 mm 7 m/s 735 mmHg 44%
    03:00 +17°C° 0 mm 7 m/s 736 mmHg 47%
    04:00 +16°C° 0 mm 7 m/s 736 mmHg 51%
    05:00 +17°C° 0 mm 6 m/s 737 mmHg 48%
    06:00 +19°C° 0 mm 6 m/s 738 mmHg 46%
    07:00 +19°C° 0 mm 6 m/s 738 mmHg 44%
    08:00 +20°C° 0 mm 6 m/s 738 mmHg 38%
    09:00 +21°C° 0 mm 5 m/s 738 mmHg 33%
    10:00 +23°C° 0 mm 5 m/s 739 mmHg 28%
    11:00 +25°C° 0 mm 5 m/s 738 mmHg 26%
    12:00 +25°C° 0 mm 4 m/s 738 mmHg 23%
    13:00 +26°C° 0 mm 4 m/s 737 mmHg 21%
    14:00 +27°C° 0 mm 3 m/s 737 mmHg 19%
    15:00 +27°C° 0 mm 3 m/s 736 mmHg 18%
    16:00 +28°C° 0 mm 3 m/s 736 mmHg 17%
    17:00 +27°C° 0 mm 3 m/s 736 mmHg 17%
    18:00 +27°C° 0 mm 4 m/s 736 mmHg 17%
    19:00 +26°C° 0 mm 4 m/s 736 mmHg 16%
    20:00 +26°C° 0 mm 4 m/s 736 mmHg 17%
    21:00 +25°C° 0 mm 4 m/s 737 mmHg 17%
    22:00 +23°C° 0 mm 4 m/s 737 mmHg 17%
    23:00 +23°C° 0 mm 5 m/s 737 mmHg 20%

    Depois de amanhã, 18 Dezembro, Terça-feira

    Tempo Temperatura Precipitação Vento Pressão Humidade
    00:00 +22°C° 0 mm 6 m/s 737 mmHg 22%
    01:00 +21°C° 0 mm 7 m/s 736 mmHg 25%
    02:00 +20°C° 0 mm 7 m/s 736 mmHg 28%
    03:00 +20°C° 0 mm 6 m/s 736 mmHg 31%
    04:00 +19°C° 0 mm 6 m/s 736 mmHg 34%
    05:00 +20°C° 0 mm 7 m/s 737 mmHg 34%
    06:00 +22°C° 0 mm 7 m/s 737 mmHg 34%
    07:00 +23°C° 0 mm 7 m/s 737 mmHg 34%
    08:00 +26°C° 0 mm 7 m/s 736 mmHg 30%
    09:00 +28°C° 0 mm 7 m/s 736 mmHg 27%
    10:00 +30°C° 0 mm 7 m/s 735 mmHg 24%
    11:00 +32°C° 0 mm 7 m/s 735 mmHg 23%
    12:00 +33°C° 0 mm 7 m/s 734 mmHg 22%
    13:00 +34°C° 0 mm 7 m/s 733 mmHg 20%
    14:00 +34°C° 0 mm 6 m/s 732 mmHg 20%
    15:00 +35°C° 0 mm 6 m/s 731 mmHg 20%
    16:00 +35°C° 0 mm 6 m/s 730 mmHg 20%
    17:00 +34°C° 0 mm 6 m/s 730 mmHg 21%
    18:00 +34°C° 0 mm 6 m/s 730 mmHg 22%
    19:00 +33°C° 0 mm 6 m/s 729 mmHg 23%
    20:00 +32°C° 0 mm 7 m/s 729 mmHg 24%
    21:00 +31°C° 0 mm 8 m/s 729 mmHg 25%
    22:00 +31°C° 0 mm 9 m/s 729 mmHg 26%
    23:00 +29°C° 0 mm 8 m/s 729 mmHg 27%

    19 Dezembro, Quarta-feira

    Tempo Temperatura Precipitação Vento Pressão Humidade
    00:00 +28°C° 0 mm 8 m/s 728 mmHg 27%
    01:00 +28°C° 0 mm 7 m/s 728 mmHg 27%
    02:00 +27°C° 0 mm 7 m/s 728 mmHg 26%
    03:00 +26°C° 0 mm 6 m/s 728 mmHg 24%
    04:00 +24°C° 0 mm 6 m/s 727 mmHg 23%
    05:00 +26°C° 0 mm 7 m/s 728 mmHg 20%
    06:00 +27°C° 0 mm 8 m/s 728 mmHg 16%
    07:00 +28°C° 0 mm 9 m/s 728 mmHg 13%
    08:00 +29°C° 0 mm 9 m/s 728 mmHg 13%
    09:00 +32°C° 0 mm 9 m/s 727 mmHg 12%
    10:00 +33°C° 0 mm 9 m/s 727 mmHg 12%
    11:00 +34°C° 0 mm 9 m/s 727 mmHg 12%
    12:00 +35°C° 0 mm 9 m/s 727 mmHg 13%
    13:00 +35°C° 0 mm 9 m/s 726 mmHg 13%
    14:00 +36°C° 0 mm 10 m/s 726 mmHg 14%
    15:00 +36°C° 0 mm 10 m/s 726 mmHg 14%
    16:00 +36°C° 0 mm 10 m/s 726 mmHg 14%
    17:00 +33°C° 0 mm 11 m/s 727 mmHg 16%
    18:00 +32°C° 0 mm 11 m/s 728 mmHg 18%
    19:00 +29°C° 0 mm 12 m/s 728 mmHg 20%
    20:00 +28°C° 0.1 mm 10 m/s 730 mmHg 26%
    21:00 +26°C° 0.1 mm 8 m/s 731 mmHg 32%
    22:00 +23°C° 0.1 mm 7 m/s 732 mmHg 38%
    23:00 +23°C° 0 mm 6 m/s 732 mmHg 37%

    20 Dezembro, Quinta-feira

    Tempo Temperatura Precipitação Vento Pressão Humidade
    00:00 +23°C° 0 mm 5 m/s 732 mmHg 35%
    01:00 +22°C° 0 mm 5 m/s 733 mmHg 34%
    02:00 +21°C° 0 mm 4 m/s 733 mmHg 35%
    03:00 +21°C° 0 mm 4 m/s 733 mmHg 36%
    04:00 +20°C° 0 mm 4 m/s 733 mmHg 37%
    05:00 +20°C° 0 mm 4 m/s 733 mmHg 36%
    06:00 +21°C° 0 mm 5 m/s 734 mmHg 34%
    07:00 +22°C° 0 mm 5 m/s 734 mmHg 33%
    08:00 +23°C° 0 mm 5 m/s 734 mmHg 30%
    09:00 +25°C° 0 mm 5 m/s 733 mmHg 27%
    10:00 +27°C° 0 mm 5 m/s 733 mmHg 24%
    11:00 +28°C° 0 mm 5 m/s 733 mmHg 21%
    12:00 +29°C° 0 mm 5 m/s 732 mmHg 19%
    13:00 +30°C° 0 mm 4 m/s 731 mmHg 17%
    14:00 +32°C° 0 mm 4 m/s 731 mmHg 16%
    15:00 +32°C° 0 mm 4 m/s 730 mmHg 14%
    16:00 +33°C° 0 mm 4 m/s 729 mmHg 13%
    17:00 +31°C° 0 mm 3 m/s 729 mmHg 13%
    18:00 +31°C° 0 mm 3 m/s 729 mmHg 13%
    19:00 +30°C° 0 mm 2 m/s 729 mmHg 13%
    20:00 +30°C° 0 mm 3 m/s 729 mmHg 14%
    21:00 +29°C° 0 mm 4 m/s 729 mmHg 15%
    22:00 +28°C° 0 mm 5 m/s 730 mmHg 16%
    23:00 +27°C° 0 mm 5 m/s 729 mmHg 18%

    21 Dezembro, Sexta-feira

    Tempo Temperatura Precipitação Vento Pressão Humidade
    00:00 +26°C° 0 mm 6 m/s 729 mmHg 21%
    01:00 +24°C° 0 mm 6 m/s 729 mmHg 23%
    02:00 +24°C° 0 mm 6 m/s 729 mmHg 25%
    03:00 +23°C° 0 mm 6 m/s 729 mmHg 26%
    04:00 +23°C° 0 mm 5 m/s 729 mmHg 27%
    05:00 +25°C° 0 mm 5 m/s 729 mmHg 27%
    06:00 +26°C° 0 mm 6 m/s 729 mmHg 26%
    07:00 +26°C° 0 mm 6 m/s 730 mmHg 26%
    08:00 +28°C° 0 mm 6 m/s 729 mmHg 23%
    09:00 +30°C° 0 mm 5 m/s 729 mmHg 21%
    10:00 +32°C° 0 mm 5 m/s 729 mmHg 18%
    11:00 +33°C° 0 mm 5 m/s 728 mmHg 16%
    12:00 +34°C° 0 mm 6 m/s 728 mmHg 13%
    13:00 +35°C° 0 mm 6 m/s 728 mmHg 11%
    14:00 +36°C° 0 mm 6 m/s 727 mmHg 10%
    15:00 +36°C° 0 mm 6 m/s 727 mmHg 9%
    16:00 +38°C° 0 mm 6 m/s 727 mmHg 8%
    17:00 +36°C° 0 mm 6 m/s 727 mmHg 9%
    18:00 +35°C° 0 mm 6 m/s 727 mmHg 10%
    19:00 +34°C° 0 mm 6 m/s 727 mmHg 11%
    20:00 +33°C° 0 mm 8 m/s 728 mmHg 14%
    21:00 +31°C° 0 mm 9 m/s 728 mmHg 18%
    22:00 +29°C° 0 mm 11 m/s 728 mmHg 21%
    23:00 +28°C° 0 mm 10 m/s 728 mmHg 24%
    Mostrar mais